Regional Weather Roundup
Issued by NWS Wakefield, VA

Home | Current Version | Previous Version | Graphics & Text | Print | Product List | Glossary On
Versions: 1 2 3 4 5 6 7 8 9 10 11 12 13 14 15 16 17 18 19 20 21 22 23 24 25 26 27 28 29 30 31 32 33 34 35 36 37 38 39 40 41 42 43 44 45 46 47 48 49 50
000
ASUS41 KAKQ 020910
RWRAKQ

REGIONAL WEATHER ROUNDUP
NATIONAL WEATHER SERVICE WAKEFIELD VA
500 AM EDT TUE SEP 02 2014

Note: "fair" indicates few or no clouds below 12,000 feet with no
significant weather and/or obstructions to visibility. * = Denotes
station may not report precipitation (e.g., rain,snow,etc.),
thunder or fog.

VAZ042-051-052>054-056-021000-
NORTHERN VIRGINIA

CITY           SKY/WX    TMP DP  RH WIND       PRES   REMARKS
WASH NATIONAL  PTCLDY    78  71  79 S6        29.95F
DULLES         PTCLDY    72  70  93 S3        29.96S
FORT BELVOIR   PTCLDY    72  70  94 CALM      29.95S FOG
QUANTICO       CLEAR     75  71  87 CALM      29.96S
FREDERICKSBRG* CLEAR     74  73  96 CALM      29.96S
STAFFORD*      CLEAR     70  70 100 CALM      30.00S
WARRENTON      NOT AVBL
CULPEPER*      CLEAR    N/A N/A N/A CALM      29.97S
MANASSAS*      CLEAR     72  72 100 CALM      29.96S
LEESBURG*      CLEAR     72  72 100 SW5       29.96F
WINCHESTER     CLEAR     75  63  64 SW6       29.97S
$$

VAZ048-049-060>072-079>083-021000-
CENTRAL AND SOUTH CENTRAL VIRGINIA...AND NORTH CENTRAL NORTH CAROLINA

CITY           SKY/WX    TMP DP  RH WIND       PRES   REMARKS
RICHMOND       MOCLDY    76  70  82 SW7       29.99S
CHESTERFIELD*  MOSUNNY  N/A N/A N/A CALM      30.00F
PETERSBURG*    CLEAR     70  68  94 CALM      30.00S
HANOVER        CLEAR     72  69  90 CALM      30.00S
TAPPAHANNOCK*  CLEAR     73  67  82 S3        29.98S
CHARLOTTSVILLE CLEAR     73  66  78 S5        29.99S
ORANGE*        CLEAR     70  66  88 CALM      30.00R
LOUISA*        CLEAR     73  70  88 CALM      29.98S
FARMVILLE*     CLEAR     72  70  94 SW5       29.99R
SOUTH HILL*      N/A     73  73 100 S5        30.07S
ROANOKE RAPIDS SUNNY     72  72 100 S5        30.02S FOG
RALEIGH        PTCLDY    74  69  85 SW3       30.05S
$$

VAZ088>098-021000-
SOUTHEAST VIRGINIA

CITY           SKY/WX    TMP DP  RH WIND       PRES   REMARKS
NORFOLK        PTCLDY    79  75  87 SW10      29.99F
VIRGINIA BEACH PTCLDY    79  76  90 SW9       29.99S
NORFOLK NAVAL  PTCLDY    80  75  84 SW7       30.01S
WEST POINT*    PTCLDY    78  71  78 CALM      29.99S
NEWPORT NEWS   CLEAR     81  74  79 SW7       29.99F
LANGLEY AFB    CLEAR     78  78 100 W8        29.99S
FORT EUSTIS    CLEAR     77  77 100 VRB1      29.98S
WILLIAMSBURG*  CLEAR     79  73  83 W6        30.00S
FRANKLIN*      CLEAR     75  75 100 SW3       30.01S
WAKEFIELD      PTCLDY    75  72  90 SW5       30.00S
$$

VAZ020-022-025-037-045-021000-
WESTERN AND SOUTHWEST VIRGINIA

CITY           SKY/WX    TMP DP  RH WIND       PRES   REMARKS
STAUNTON*        N/A     66  63  88 CALM      30.05S
HOT SPRINGS VA PTCLDY    66  62  85 W16       30.19S
LYNCHBURG      CLEAR     68  68 100 SW6       30.05S
DANVILLE       CLEAR     70  67  90 W3        30.04R
MARTINSVILLE   CLEAR     66  66 100 CALM      30.08S FOG
ROANOKE        PTCLDY    74  65  73 CALM      30.08S
BLACKSBURG     PTCLDY    68  68 100 CALM      30.14S
DUBLIN*        PTCLDY    67  67  99 CALM      30.14S
MARION*        PTCLDY   N/A N/A N/A W5        30.18S
HILLSVILLE*    CLEAR     65  63  93 SW5       30.17S
RICHLANDS*     PTSUNNY   74  68  82 W3        30.16S
WISE*          MOCLDY    72  64  78 SW10      30.17S
ABINGDON*      PTCLDY    68  67  97 CALM      30.14F
$$

MDZ021>025-VAZ099-100-021000-
SOUTHERN MARYLAND AND THE DELMARVA PENINSULA

CITY           SKY/WX    TMP DP  RH WIND       PRES   REMARKS
PATUXENT RIVER PTCLDY    73  70  90 CALM      29.95F
BAY BRIDGE APT   N/A     77  73  88 SW3       29.94S
LEONARDTOWN    PTCLDY    73  68  83 SW3       29.97F
DOVER          PTCLDY    74  74 100 S8        29.92F
GEORGETOWN     CLEAR     77  72  84 S8        29.95S
EASTON         CLEAR     76  76 100 CALM      29.98S
CAMBRIDGE      NOT AVBL
SALISBURY      CLEAR     77  72  84 SW3       29.95F
OCEAN CITY     CLEAR     78  72  81 W8        29.95S
WALLOPS ISLAND CLEAR     77  72  84 W6        29.96F
ACCOMACK*      NOT AVBL
$$

NCZ012>017-030>032-021000-
EASTERN NORTH CAROLINA

CITY           SKY/WX    TMP DP  RH WIND       PRES   REMARKS
ELIZABETH CITY PTCLDY    75  73  93 SW7       30.02S
AHOSKIE*       CLEAR     73  72  96 CALM      30.02S
EDENTON*       PTCLDY    78  75  91 SW8       30.03S
CURRITUCK*     PTCLDY    78  73  85 SW5       30.02S
KILL DEVIL HLS PTCLDY    78  75  88 SW7       30.01F
MANTEO         PTCLDY    78  75  90 SW9       30.03S
CAPE HATTERAS  CLEAR     78  76  93 W10       30.05S
GOLDSBORO      CLEAR     76  76  98 VRB3      30.03S
WASHINGTON     CLEAR     76  74  94 SW6       30.04F
GREENVILLE     CLEAR     77  73  88 SW7       30.05F
NEW BERN       CLEAR     77  74  90 SW5       30.06F
WILMINGTON     MOCLDY    77  75  93 CALM      30.06S
$$

VAZ048-021000-
ELSEWHERE

CITY           SKY/WX    TMP DP  RH WIND       PRES   REMARKS
HARRISBURG PA  PTCLDY    74  71  91 CALM      29.92S
BALTIMORE      PTCLDY    73  72  96 W3        29.93F
ANNAPOLIS      PTCLDY    77  72  84 CALM      29.93F
ANDREWS AFB    PTCLDY    75  72  88 SW6       29.95F
WILMINGTON DE  PTCLDY    74  71  91 S5        29.93F
PHILADELPHIA   PTCLDY    77  72  84 SW3       29.91F
WILDWOOD NJ*   PTCLDY    75  70  83 W6        29.94F
ATLANTIC CITY  CLEAR     74  73  97 S5        29.91F
HENDERSON NC   CLEAR     73  70  91 SW6       30.04S
GREENSBORO     CLEAR     72  69  90 SW5       30.06S
ROCKY MOUNT    CLEAR     75  73  93 S6        30.04S
FAYETTEVILLE   CLEAR     76  74  93 SW6       30.05S
CHARLOTTE      PTCLDY    72  67  84 CALM      30.07F
$$

VAZ100-021000-
MARINE

STATION/POSITION TIME  TEMP    WIND        PRES    WAVE   SWELL
                       AIR SEA DIR/SP/G            HT/PER HT/PER
                 (UTC) (F)     (DEG/KT/KT) (MB)    (FT/S) (FT/S)
44066 TX TWR #4  0900   75 74  230/ 10/ 12 1013.2F   3/ 5   3/ 5
CAPE MAY NJ      0900   77 80  240/  6/  8 1013.0F
LEWES DE         0900   77 77  250/  8/ 10 1013.3S
15NM E FENWICK I 0900   76 75              1013.5F   2/ 9
OCEAN-CITY-INLET 0900   78 76  250/  5/  7 1013.6S
WACHAPREAGUE VA  0900   77 82  240/  5/  8 1014.8F
THOMAS POINT MD  0900   78 79  250/  7/  7 1014.7F
GOOSES REEF MD   0900   79     250/  6/  8 1014.5S
COVE POINT MD    0900   79     270/ 11/ 12 1013.8S
SOLOMONS ISLAND  0900      81                N/A
BISHOPS HEAD MD  0900   80 80  220/  6/  7 1013.8F
PINEY POINT MD   0900          290/  6/  7   N/A
POTOMAC MD       0900   80     260/  6/  8 1013.9F
CAMBRIDGE MD     0900   77 80  220/  3/  4 1013.5F
LEWISETTA VA     0900   77 81  240/  7/  8 1014.1R
RAPPAHANNOCK LGT 0900          220/ 10/ 12 1015.4F
STINGRAY PT      0900   79     240/ 12/ 14   N/A
YORK RVR RNG VA  0900   79     250/ 12/ 14 1014.7F
YORKTOWN VA      0900   78 80  220/  4/  5 1015.1S
JAMESTOWN VA     0900   75     240/  8/ 10   N/A
DOMINION TERM VA 0900   79     240/ 11/ 13 1015.5F
KIPTOPEKE VA     0900      83  250/ 11/ 14   N/A
CHES BAY BRIDGE  0900   80 80  220/ 11/ 14 1015.0S
CAPE HENRY VA    0900   80     220/  8/ 11 1014.3F
CHESAPEAKE LGHT  0800   80     220/ 13/ 14 1016.3F
WILLOUBY STN VA  0900   79     250/  9/ 12 1014.3F
S CRANEY ISL VA  0900          220/  6/  8 1015.3F
CAPE HENRY BUOY  0800      80                N/A     2/10   2/11
1ST LANDING BUOY 0900   81     230/ 10/ 14 1015.3S
CAPE CHARLES BUO 0900      79                N/A     2/ 9   2/ 9
OFFSHORE WE BUOY 0800      78                N/A     3/10   2/10
64NM E OF VA BCH 0900   78 78  220/ 14/ 16 1015.3F   3/10   2/10
DUCK PIER NC     0900   79 75  230/ 12/ 15 1015.7F
44056 DUCK FRF   0800                        N/A     2/11   2/11
OREGON INLET NC  0900   80 84  230/ 11/ 14 1016.8F
HATTERAS NC      0900   80 84  240/  9/ 14 1017.9S
DIAMOND SHLS NC  0900   80     240/ 16/ 17 1017.4S   4/ 4   2/11
CAPE LOOKOUT NC  0800   81     240/  9/ 13 1017.9S
$$


USA.gov is the U.S. government's official web portal to all federal, state and local government web resources and services.